TimeMDT,TemperatureF,Dew PointF,Humidity,Sea Level PressureIn,VisibilityMPH,Wind Direction,Wind SpeedMPH,Gust SpeedMPH,PrecipitationIn,Events,Conditions,WindDirDegrees,DateUTC
12:53 AM,48.9,30.9,50,29.88,10.0,WNW,9.2,-,N/A,,Clear,300,2013-09-24 06:53:00
1:53 AM,52.0,30.0,43,29.91,10.0,NW,12.7,-,N/A,,Clear,310,2013-09-24 07:53:00
2:53 AM,44.1,32.0,63,29.93,10.0,NW,3.5,-,N/A,,Clear,310,2013-09-24 08:53:00
3:53 AM,39.0,30.9,73,29.94,10.0,Calm,Calm,-,N/A,,Clear,0,2013-09-24 09:53:00
4:53 AM,39.9,32.0,73,29.93,10.0,NW,10.4,-,N/A,,Clear,320,2013-09-24 10:53:00
5:53 AM,41.0,32.0,70,29.91,10.0,NNW,15.0,-,N/A,,Clear,330,2013-09-24 11:53:00
6:53 AM,42.1,32.0,67,29.91,10.0,Calm,Calm,-,N/A,,Scattered Clouds,0,2013-09-24 12:53:00
7:53 AM,42.1,33.1,70,29.91,10.0,Calm,Calm,-,N/A,,Scattered Clouds,0,2013-09-24 13:53:00
8:53 AM,48.0,34.0,58,29.91,10.0,East,3.5,-,N/A,,Mostly Cloudy,80,2013-09-24 14:53:00
9:53 AM,55.9,35.1,45,29.83,10.0,East,9.2,-,N/A,,Clear,100,2013-09-24 15:53:00
10:53 AM,55.0,35.1,47,29.83,10.0,East,8.1,-,N/A,,Overcast,100,2013-09-24 16:53:00
11:53 AM,59.0,35.1,41,29.79,10.0,East,10.4,-,N/A,,Mostly Cloudy,90,2013-09-24 17:53:00
12:53 PM,60.1,37.0,42,29.75,10.0,East,11.5,-,N/A,,Overcast,90,2013-09-24 18:53:00
1:53 PM,61.0,36.0,39,29.70,10.0,East,9.2,-,N/A,,Mostly Cloudy,100,2013-09-24 19:53:00
2:53 PM,61.0,37.0,41,29.70,10.0,East,15.0,21.9,N/A,,Overcast,100,2013-09-24 20:53:00
3:53 PM,62.1,39.0,43,29.70,10.0,South,8.1,-,0.00,,Overcast,180,2013-09-24 21:53:00
4:53 PM,63.0,35.1,35,29.67,10.0,SW,17.3,28.8,N/A,,Partly Cloudy,220,2013-09-24 22:53:00
5:53 PM,64.0,37.0,37,29.66,10.0,SW,26.5,39.1,N/A,,Clear,220,2013-09-24 23:53:00
6:53 PM,61.0,37.0,41,29.65,10.0,SSW,34.5,47.2,N/A,,Mostly Cloudy,210,2013-09-25 00:53:00
7:48 PM,57.2,39.2,51,29.72,10.0,SW,13.8,20.7,0.00,,Scattered Clouds,230,2013-09-25 01:48:00
7:53 PM,57.0,39.0,51,29.68,10.0,SW,13.8,21.9,0.00,,Partly Cloudy,230,2013-09-25 01:53:00
8:35 PM,57.2,39.2,51,29.73,10.0,SW,24.2,31.1,0.00,Thunderstorm,Scattered Clouds,230,2013-09-25 02:35:00
8:44 PM,44.6,37.4,76,29.77,4.0,WSW,46.0,62.1,0.06,Rain-Thunderstorm,Thunderstorms and Rain,250,2013-09-25 02:44:00
8:53 PM,45.0,39.0,80,29.78,10.0,WSW,40.3,54.1,0.06,Rain-Thunderstorm,Light Thunderstorms and Rain,250,2013-09-25 02:53:00
9:09 PM,44.6,-9999,N/A,29.84,10.0,WSW,17.3,25.3,0.00,Rain,Light Rain,250,2013-09-25 03:09:00
9:19 PM,44.6,-9999,N/A,29.85,10.0,WSW,11.5,-,0.00,,Overcast,240,2013-09-25 03:19:00
9:53 PM,46.0,-9999,N/A,29.76,10.0,NNW,6.9,-,0.00,,Overcast,340,2013-09-25 03:53:00
10:53 PM,45.0,-9999,N/A,29.74,10.0,WNW,8.1,-,0.00,,Scattered Clouds,300,2013-09-25 04:53:00
11:53 PM,44.1,-9999,N/A,29.72,10.0,WSW,10.4,-,N/A,,Clear,240,2013-09-25 05:53:00